Wetbulb
57.57 57.52 57.49 57.60 57.77 58.09 58.39 58.52 58.77 58.97 59.01 59.39 59.32 59.71 60.20 60.30 59.79 62.69 62.48 67.70 68.91 75.08 76.88 71.64 71.51 68.80 69.92 67.52 68.21 66.56 60.07 58.25 58.48 59.09 59.75 62.95 62.30 65.69 68.66 67.13 68.04 69.11 70.29 72.16 74.04
56.93 57.07 57.09 57.21 57.51 57.79 58.13 58.19 58.34 58.53 58.57 58.61 59.09 59.20 59.92 60.25 62.17 60.46 69.88 74.82 74.78 74.65 69.28 66.87 64.99 66.82 65.16 65.29 65.89 63.38 59.09 59.46 61.80 63.60 62.26 62.77 62.58 64.69 65.10 65.79 66.41 67.77 71.58 72.90 73.69
56.56 56.60 56.80 56.91 57.21 57.47 57.78 57.82 57.95 58.03 57.96 58.02 58.34 59.03 59.80 60.49 60.52 59.64 71.15 72.73 75.82 74.83 65.23 66.15 65.10 65.28 62.98 63.81 62.60 62.49 60.71 63.18 62.98 63.81 64.76 63.23 63.16 65.10 64.42 63.34 66.53 66.85 69.16 71.24 72.36
56.07 56.06 56.07 56.29 56.69 57.03 57.20 57.46 57.27 57.15 57.09 57.40 58.07 58.78 59.85 62.54 52.40 63.71 72.07 72.26 75.21 70.45 65.85 63.40 62.75 60.31 60.69 58.89 61.33 59.73 63.32 63.35 63.70 63.97 64.63 63.09 64.73 63.34 63.77 64.93 68.11 69.69 70.22 70.88 71.37
55.67 55.53 55.47 55.50 55.96 56.35 56.58 56.67 56.38 56.05 56.30 56.74 57.67 58.97 60.82 59.16 58.02 67.35 73.01 72.22 69.74 65.88 64.54 60.87 59.95 59.20 58.50 58.98 60.52 59.81 61.40 62.10 62.54 64.00 64.40 65.88 63.70 62.82 63.13 66.27 68.57 70.37 70.14 70.21 71.14
54.87 55.29 55.67 55.63 55.28 55.80 56.18 56.10 55.34 55.37 55.73 56.79 57.98 58.66 60.42 54.66 62.17 64.92 64.34 66.22 64.60 64.09 61.66 60.76 59.78 60.00 58.66 58.98 59.43 61.29 61.45 61.05 61.80 62.99 64.42 64.09 63.79 64.52 64.54 67.29 68.15 69.81 69.59 70.27 70.71
54.81 54.99 55.23 55.28 55.02 54.81 55.39 55.25 54.59 54.50 55.57 57.64 58.40 60.51 59.20 57.99 62.28 63.34 65.23 63.64 64.46 63.23 60.68 60.95 60.89 58.31 58.69 57.69 60.95 61.04 58.41 60.99 61.56 62.17 62.62 64.47 62.01 61.83 65.64 68.00 67.49 68.99 69.95 69.84 70.54
54.25 54.78 54.82 54.39 54.20 54.65 54.69 53.93 53.58 55.13 57.42 59.40 60.25 61.60 57.21 63.55 65.04 62.39 62.59 61.92 63.27 64.06 62.40 62.24 61.09 59.23 58.51 60.56 59.81 58.13 59.00 56.48 61.57 61.71 62.62 63.15 59.04 64.07 66.89 66.55 66.43 68.24 69.57 69.66 70.46
54.03 54.34 54.27 54.82 54.59 54.16 53.11 52.84 53.99 57.38 58.69 59.50 61.63 61.94 56.89 64.96 61.48 63.17 63.87 61.62 61.83 62.21 63.46 61.98 60.86 57.37 57.84 55.14 55.38 57.69 54.17 56.29 58.49 62.43 63.23 62.34 59.70 65.06 67.64 66.07 66.03 67.60 68.94 69.78 70.34
54.33 54.38 54.32 54.26 53.70 52.82 52.12 52.30 56.56 58.78 60.61 63.06 63.19 59.61 60.37 59.13 61.81 62.78 64.26 62.21 59.15 60.28 58.72 57.78 57.11 54.67 54.84 55.13 51.10 54.60 55.01 57.27 58.75 60.38 63.23 60.95 60.65 65.18 66.89 66.75 64.97 66.56 67.97 69.39 69.60
54.08 54.12 53.89 53.54 52.84 51.95 53.27 59.00 58.41 59.16 61.80 58.37 58.90 57.80 58.72 60.77 63.75 60.62 62.79 60.00 58.97 58.61 53.97 55.60 52.21 50.61 53.95 56.53 57.26 57.72 57.24 56.61 58.82 60.85 61.22 61.19 61.25 63.77 66.33 66.51 65.85 65.85 66.79 68.36 69.35
53.95 53.75 53.62 52.92 52.12 51.20 53.92 54.05 54.23 53.77 49.52 55.16 56.34 56.75 58.41 59.21 55.41 58.71 62.10 56.70 55.14 53.37 55.28 53.12 50.42 54.32 56.51 57.14 56.56 56.71 56.47 57.05 59.33 59.84 60.78 60.66 60.55 63.36 66.69 66.49 66.70 66.39 66.46 67.29 68.93
53.89 53.58 53.09 52.20 51.25 54.77 53.43 53.96 56.38 55.91 50.18 52.80 55.77 55.12 56.14 57.14 54.08 55.14 57.68 57.50 54.47 52.65 53.63 51.35 52.64 54.97 55.21 55.75 55.43 56.18 55.85 56.82 56.99 61.21 62.49 60.76 59.21 61.00 64.22 67.24 67.84 67.52 68.12 68.16 68.39
53.83 53.54 52.51 51.00 51.37 53.72 53.63 56.86 57.02 55.88 47.51 50.85 52.67 54.62 56.82 57.29 53.23 58.13 59.89 56.29 55.58 52.75 53.14 53.23 55.02 53.27 53.22 53.85 55.52 53.65 57.60 57.87 57.71 57.05 55.23 60.08 53.58 60.09 61.91 63.47 66.48 67.48 67.76 67.79 68.57
53.77 53.17 51.83 50.01 51.68 52.19 54.27 55.76 55.73 54.71 41.52 53.52 54.23 60.19 59.20 56.56 57.89 57.00 60.66 56.84 53.60 53.66 53.77 51.60 52.41 52.67 51.90 53.20 56.08 54.61 57.96 57.82 57.93 57.78 57.58 56.89 54.88 57.93 61.32 60.76 63.63 66.82 68.03 68.31 68.71
53.38 52.26 51.40 52.94 54.74 56.08 56.40 55.67 54.93 46.25 42.01 50.97 55.03 54.39 55.28 56.11 55.77 57.56 56.69 58.41 57.64 54.34 54.55 53.58 56.07 54.22 53.89 54.88 56.15 57.34 56.72 57.51 57.49 56.64 52.12 56.76 54.90 56.99 58.03 61.13 62.94 65.66 67.97 69.11 69.48
52.12 50.66 50.75 53.26 51.02 56.07 55.82 52.93 44.97 42.39 51.83 50.25 51.39 53.68 53.26 52.94 53.85 54.88 53.56 52.86 51.42 49.23 50.20 52.69 52.90 55.05 55.00 52.58 55.26 55.45 54.31 49.81 49.46 49.99 49.51 56.78 55.90 57.80 62.05 62.33 63.23 63.30 65.23 68.65 70.23
50.39 48.81 53.18 55.20 57.23 55.94 52.78 46.54 40.69 47.69 48.64 52.63 52.48 53.46 51.23 53.46 52.93 53.67 53.17 51.27 53.85 53.14 51.04 49.04 47.52 52.88 54.51 52.98 52.04 53.41 53.76 49.91 46.31 48.09 50.67 56.15 52.83 56.63 62.85 63.50 63.27 64.05 63.87 66.61 69.49
49.39 54.06 53.62 55.27 56.54 55.50 48.40 40.74 43.54 47.36 51.11 50.43 51.66 50.05 51.05 52.54 52.66 52.02 52.55 52.27 53.39 53.83 50.47 50.26 49.78 54.68 54.74 54.54 53.71 52.81 51.68 55.99 52.52 54.17 51.26 53.50 56.48 59.66 62.04 62.35 62.48 62.63 62.98 63.57 67.93
50.29 51.87 52.45 56.04 58.05 54.38 45.97 41.32 46.29 49.42 50.67 50.47 47.78 50.52 49.08 51.02 50.80 51.06 51.66 53.90 53.44 54.98 55.74 53.50 49.91 53.98 53.78 54.72 53.93 52.48 55.73 51.31 53.35 48.43 47.46 51.42 53.33 54.14 58.77 59.55 60.80 62.02 62.34 63.81 66.39
50.71 47.61 55.09 57.03 57.82 50.35 42.34 44.25 46.63 49.32 49.88 48.09 48.43 49.18 49.87 49.96 51.03 50.74 50.88 53.01 54.44 54.78 55.94 54.04 53.02 52.40 54.32 51.78 50.68 50.81 51.10 53.69 53.97 52.84 48.79 48.25 52.17 59.20 60.15 61.45 60.73 61.88 62.57 63.77 66.19
49.32 44.09 54.69 57.11 47.64 48.21 45.56 47.42 47.39 48.71 50.66 48.31 48.34 48.76 49.67 50.54 49.98 50.32 50.34 52.86 55.56 55.58 53.09 55.33 53.22 50.54 51.82 54.81 55.02 53.30 51.90 52.40 51.27 51.63 52.35 52.46 52.23 60.07 60.58 60.93 61.50 62.17 62.97 64.26 66.63
45.57 47.34 53.78 51.90 40.40 42.69 46.28 46.66 48.53 48.06 48.68 48.19 46.88 47.97 49.16 48.46 47.86 50.63 51.62 54.47 54.78 55.05 54.58 55.35 51.92 48.81 50.42 52.79 54.17 51.78 52.52 53.02 53.31 54.78 54.11 50.26 51.91 60.16 60.62 61.03 62.28 61.96 62.82 64.19 66.23
45.24 42.09 47.85 48.71 47.48 44.04 43.10 44.15 44.12 48.62 47.83 48.42 47.94 49.06 47.37 46.66 49.64 48.52 50.02 52.98 54.54 53.94 60.06 59.62 53.94 51.55 48.69 51.15 52.59 50.25 50.90 51.89 51.96 50.42 51.81 51.81 54.38 58.15 59.51 59.86 60.85 62.04 63.05 64.62 65.57
44.33 42.80 45.74 41.51 43.55 42.91 43.53 43.58 42.32 42.77 48.08 48.85 47.09 46.91 46.79 45.54 46.29 46.65 49.96 52.16 53.24 57.57 55.38 55.91 52.21 53.53 53.24 53.81 53.70 51.87 50.33 50.74 50.09 52.03 50.63 53.22 53.99 57.51 60.02 60.55 61.18 61.85 62.73 62.99 64.09
42.38 42.18 45.28 43.00 44.48 41.49 40.06 40.74 39.75 42.14 43.16 42.50 43.81 46.45 47.72 46.20 48.06 46.42 49.06 51.11 51.80 54.03 54.60 56.15 53.15 54.54 51.58 53.04 52.65 51.27 52.48 51.40 51.12 51.12 51.80 52.74 53.32 58.62 60.55 62.29 61.50 61.54 62.25 62.31 63.16
46.53 47.98 44.26 40.44 41.43 40.71 40.16 40.00 41.40 42.45 42.95 44.91 45.02 43.52 45.88 48.44 49.97 51.60 52.74 53.90 53.58 53.81 54.04 55.35 54.53 53.95 50.72 54.01 53.54 49.95 52.17 52.74 53.36 53.61 52.30 49.96 54.07 57.24 58.17 60.37 62.01 61.94 62.20 62.91 65.15
MSLP
1018.37 1017.82 1017.32 1016.82 1016.32 1015.82 1015.38 1014.91 1014.39 1013.91 1013.41 1012.91 1012.55 1012.11 1011.67 1011.12 1010.32 1009.91 1006.82 1004.77 1004.85 1005.34 1005.77 1004.77 1004.43 1003.70 1003.27 1002.12 1000.73 1000.65 1000.12 998.40 998.68 999.70 999.62 1000.79 1000.88 1001.98 1002.45 1003.52 1004.07 1004.39 1005.34 1007.31 1008.58
1018.55 1018.00 1017.41 1016.89 1016.39 1015.84 1015.25 1014.82 1014.32 1013.90 1013.42 1012.77 1012.30 1011.90 1011.36 1010.93 1008.99 1006.21 1004.24 1004.34 1004.68 1005.22 1004.92 1003.69 1003.18 1002.93 1002.17 1001.16 1000.27 1000.32 1001.29 998.51 998.09 999.07 999.00 1000.36 1000.74 1001.71 1002.58 1003.56 1004.03 1005.11 1005.66 1007.74 1008.73
1018.68 1018.10 1017.44 1016.80 1016.27 1015.73 1015.17 1014.64 1014.14 1013.71 1013.37 1012.79 1012.20 1011.66 1011.13 1010.59 1007.22 1003.00 1003.99 1004.32 1004.55 1004.81 1003.53 1002.90 1002.41 1002.18 1001.54 1000.47 999.76 999.43 1000.76 998.93 998.37 998.68 998.82 1000.00 1000.49 1001.43 1001.89 1003.06 1003.84 1004.99 1006.20 1007.71 1008.60
1018.75 1018.22 1017.66 1016.96 1016.21 1015.65 1015.08 1014.45 1013.95 1013.53 1013.11 1012.71 1012.11 1011.66 1010.96 1009.34 1005.09 1003.27 1004.10 1004.45 1004.54 1004.55 1003.47 1002.43 1001.99 1001.42 1000.87 999.95 999.37 998.83 998.88 998.61 998.17 998.97 998.66 999.29 999.99 1000.90 1001.73 1001.85 1003.38 1004.77 1006.17 1007.50 1008.28
1018.71 1018.19 1017.61 1016.96 1016.27 1015.54 1014.94 1014.45 1013.86 1013.26 1012.86 1012.48 1012.05 1011.58 1010.58 1007.13 1003.61 1003.34 1003.89 1004.47 1004.43 1004.07 1003.06 1001.98 1001.48 1000.90 1000.12 999.33 998.74 998.34 998.06 998.06 998.22 998.67 998.59 998.98 999.78 1000.57 1001.58 1002.33 1003.43 1004.59 1006.05 1007.15 1007.89
1018.59 1018.01 1017.40 1016.72 1016.02 1015.28 1014.67 1014.15 1013.64 1013.01 1012.46 1012.07 1011.75 1011.59 1009.60 1005.10 1001.72 1002.28 1002.87 1003.30 1002.96 1003.07 1002.39 1001.83 1000.91 1000.63 999.87 999.14 998.18 997.87 997.82 997.83 997.92 997.89 998.66 998.82 999.62 1000.69 1001.41 1002.44 1003.24 1004.47 1005.71 1006.66 1007.39
1018.51 1017.86 1017.27 1016.54 1015.75 1014.93 1014.22 1013.66 1013.18 1012.58 1011.97 1011.44 1011.22 1010.75 1007.43 1003.35 1001.46 1001.86 1002.31 1002.01 1001.81 1001.99 1001.48 1001.40 1001.09 1000.45 999.94 998.86 998.29 997.94 997.82 997.73 997.87 997.73 998.31 998.87 999.47 1000.16 1000.75 1002.25 1003.04 1004.11 1005.24 1006.09 1006.85
1018.44 1017.72 1017.07 1016.31 1015.52 1014.72 1013.92 1013.07 1012.45 1011.90 1011.23 1010.86 1010.70 1009.52 1004.99 1001.14 1001.24 1001.25 1001.76 1001.64 1001.50 1001.33 1001.23 1000.65 1001.00 1000.41 999.64 999.04 998.12 997.82 997.52 996.65 996.51 997.42 997.97 998.82 998.30 999.54 1000.51 1001.63 1002.37 1003.61 1004.62 1005.53 1006.26
1018.47 1017.64 1016.92 1015.88 1014.99 1014.19 1013.53 1012.51 1011.79 1011.23 1010.77 1010.60 1009.78 1007.61 1002.81 1001.66 1001.23 1000.78 1000.91 1000.73 1000.71 1000.81 1000.96 1000.91 1000.89 1000.43 1000.03 999.10 997.91 997.18 996.39 996.02 996.22 996.93 997.58 998.47 998.16 998.71 1000.14 1001.04 1001.73 1002.79 1003.79 1004.69 1005.69
1018.34 1017.40 1016.84 1015.80 1014.78 1013.73 1012.64 1011.42 1010.85 1010.82 1010.49 1009.38 1007.92 1006.05 1001.78 999.80 999.53 999.73 999.90 1000.10 1000.08 1000.37 1000.75 1000.73 1000.33 999.76 999.32 998.09 996.74 996.16 995.90 994.93 995.19 996.34 997.08 997.86 997.93 998.12 999.44 1000.26 1000.91 1001.98 1002.82 1003.88 1004.69
1018.18 1017.33 1016.42 1015.45 1014.41 1013.65 1012.28 1009.10 1009.70 1009.10 1007.41 1004.37 1002.39 1000.79 999.35 999.12 999.30 999.66 999.62 999.70 999.73 999.92 999.37 999.51 998.95 997.63 997.68 997.34 996.86 995.68 994.90 994.40 994.53 995.18 996.63 996.99 997.25 997.67 998.85 999.68 1000.10 1000.92 1002.00 1002.89 1003.77
1017.97 1017.22 1016.15 1015.26 1014.08 1013.17 1012.49 1008.59 1007.50 1007.57 1004.79 1002.52 1000.98 999.84 999.06 998.86 998.64 998.77 999.03 999.20 998.94 998.59 998.83 998.30 997.16 997.14 997.35 997.10 996.62 995.63 994.60 994.12 994.22 994.78 995.93 996.08 996.28 996.47 997.75 998.83 999.35 999.98 1000.86 1001.89 1002.84
1017.81 1017.28 1016.22 1014.78 1013.24 1012.15 1009.90 1008.33 1007.71 1007.03 1004.23 999.72 998.23 997.78 997.48 998.10 997.67 997.63 998.12 998.22 997.91 997.72 997.25 996.32 996.17 996.80 996.50 996.22 995.91 995.40 994.56 993.90 993.84 994.52 996.24 995.38 995.86 995.73 996.36 997.64 998.68 999.12 999.77 1000.62 1001.51
1017.71 1017.14 1016.49 1015.06 1012.56 1010.41 1008.17 1007.91 1007.77 1007.18 1003.33 997.54 996.53 996.27 996.63 997.00 996.69 996.81 996.39 997.17 997.24 996.69 996.65 996.05 995.65 995.65 995.81 995.45 995.56 994.83 995.08 994.29 993.91 994.88 995.08 995.23 994.24 994.47 995.12 995.87 997.25 998.16 998.62 999.38 1000.29
1017.55 1016.65 1016.46 1016.18 1013.69 1010.40 1008.36 1008.19 1007.82 1006.85 1001.17 995.36 995.37 995.18 995.46 995.85 995.01 995.31 995.79 996.23 995.96 995.87 995.92 994.92 994.97 994.63 994.73 994.55 995.12 994.69 994.65 994.53 994.12 993.89 995.84 993.97 993.97 993.03 994.21 994.07 995.18 996.50 997.40 998.14 999.05
1017.14 1016.35 1016.13 1013.30 1012.49 1010.04 1009.23 1008.79 1007.70 1004.72 998.16 994.92 994.69 995.02 994.94 994.78 994.59 995.18 995.20 995.60 995.81 995.51 995.26 994.68 994.63 994.58 994.12 994.71 994.82 995.20 994.67 994.30 994.21 993.83 992.97 993.06 993.30 992.77 993.81 993.00 993.40 994.32 995.81 996.96 997.88
1016.54 1015.74 1015.40 1014.48 1010.38 1008.88 1008.83 1007.74 1005.38 1000.55 995.88 993.88 993.61 993.81 993.79 993.27 993.62 994.43 994.66 994.43 994.34 994.44 994.06 994.31 993.66 993.83 993.91 994.31 994.55 994.84 994.50 993.85 993.33 992.76 992.45 992.60 992.31 993.70 991.38 991.74 992.53 993.11 993.59 994.89 996.42
1015.83 1014.54 1012.35 1011.16 1010.06 1009.98 1009.30 1006.94 1002.16 997.11 995.53 993.16 992.86 992.91 992.69 992.16 992.46 993.01 993.50 993.48 993.79 993.32 992.72 992.83 992.69 992.96 993.19 993.16 993.50 993.52 993.49 992.71 992.27 991.91 991.88 992.19 990.84 990.56 990.85 991.15 991.63 992.07 992.52 993.10 994.96
1015.32 1011.96 1009.83 1008.62 1009.15 1009.62 1008.15 1003.91 998.99 997.49 994.86 993.71 992.96 992.30 991.91 991.95 991.98 992.05 992.13 992.18 992.31 992.75 991.96 991.30 991.63 992.17 992.61 993.27 993.73 992.59 992.32 992.73 992.33 991.73 991.31 990.59 990.41 990.54 990.53 990.65 991.22 991.84 992.17 992.25 993.45
1015.06 1011.65 1008.25 1007.64 1008.92 1008.73 1006.54 1001.32 998.60 997.26 995.32 994.33 992.79 992.14 991.53 991.35 991.41 991.44 990.83 991.00 991.04 991.45 991.86 991.19 990.91 991.16 991.79 992.89 992.87 992.27 992.20 992.26 991.43 990.73 989.98 989.61 989.13 989.01 989.72 990.78 991.06 991.17 991.38 991.87 992.61
1014.25 1009.90 1007.17 1007.77 1008.41 1007.25 1003.32 1000.69 999.74 998.20 996.65 995.71 993.77 992.67 991.65 991.09 990.73 990.21 990.39 990.48 990.24 990.37 991.07 991.37 990.88 990.67 991.10 990.51 990.93 991.69 991.01 990.76 991.36 991.17 990.01 989.38 988.19 988.55 989.08 990.04 990.47 990.72 990.70 990.85 991.93
1013.45 1009.42 1006.88 1007.52 1006.79 1004.76 1002.41 1001.44 1000.25 998.00 996.90 996.24 995.30 993.75 992.85 991.72 991.06 990.17 989.55 989.39 989.34 989.99 989.79 990.62 990.64 990.18 989.67 990.29 990.93 991.05 990.77 990.88 990.11 990.41 989.95 989.32 987.88 987.91 988.86 989.43 990.15 989.97 990.02 990.21 990.89
1012.94 1009.40 1007.35 1006.65 1005.20 1003.69 1002.47 1000.93 999.84 998.66 997.51 996.60 995.49 995.14 994.31 993.17 991.92 991.07 990.23 989.59 989.90 990.19 989.42 990.30 990.32 989.83 990.06 989.94 989.85 989.72 989.94 989.67 989.89 989.87 988.92 989.02 988.23 988.35 988.57 988.78 989.32 989.98 990.35 990.37 990.69
1014.05 1008.93 1005.84 1005.47 1005.18 1004.08 1002.96 1001.29 1000.05 999.07 998.54 998.06 996.84 995.85 994.92 994.00 992.83 991.89 990.98 990.14 990.07 990.95 991.23 990.53 989.75 989.40 988.19 988.76 988.94 989.30 989.58 989.54 989.18 988.51 988.54 988.15 988.57 988.09 988.29 989.06 989.74 990.15 990.16 990.15 990.31
1014.40 1010.41 1008.13 1006.12 1004.54 1005.77 1005.30 1004.09 1002.28 1001.48 1000.19 999.57 998.28 996.87 995.33 994.15 993.76 992.41 991.70 990.67 990.45 990.93 991.57 990.70 989.79 989.39 989.27 988.73 988.57 988.34 988.63 988.88 988.63 988.29 987.93 987.93 987.98 987.84 988.02 988.37 988.92 989.58 990.10 990.02 990.06
1015.02 1012.19 1010.75 1009.18 1007.75 1006.81 1006.27 1005.16 1003.55 1003.10 1002.42 1001.33 999.40 997.92 996.86 995.24 994.38 993.13 992.21 991.18 990.08 990.59 990.92 990.64 989.97 989.86 989.20 989.04 988.94 988.27 987.92 988.14 988.36 988.42 988.03 988.15 987.47 987.69 987.89 987.94 988.37 988.88 989.42 989.63 989.69
1015.29 1013.89 1012.60 1010.37 1008.73 1007.07 1005.72 1005.42 1004.53 1003.27 1003.27 1003.19 1001.92 1000.96 998.84 997.34 996.84 995.45 993.81 991.70 990.94 990.65 990.73 990.54 990.22 990.35 989.38 989.28 988.77 988.48 987.75 987.56 987.53 987.61 987.90 987.62 987.38 988.16 987.58 987.37 987.44 987.96 988.56 989.24 989.47
Wind_Speed
20 21 21 21 22 21 20 20 21 21 21 21 20 18 16 16 18 9 12 8 7 17 9 12 16 13 14 16 16 15 10 1 7 19 15 11 12 7 12 13 11 4 18 21 21
20 21 21 21 21 21 21 21 21 21 21 22 20 19 18 15 15 21 7 10 14 16 14 17 16 14 14 15 13 9 9 8 9 17 17 10 12 12 12 14 13 8 23 23 21
21 21 22 22 22 22 22 22 21 21 21 21 21 20 18 19 18 8 7 10 13 19 20 16 15 14 17 17 14 13 13 20 10 9 12 13 11 12 12 13 16 15 21 23 22
22 22 22 23 24 23 22 23 22 21 20 20 20 18 17 10 8 10 11 11 14 17 20 16 18 18 19 17 15 15 16 14 6 8 5 14 13 12 8 13 15 16 20 23 22
22 22 23 23 24 24 23 22 23 22 20 19 17 16 12 11 17 15 12 10 14 17 19 18 20 19 20 18 15 12 10 4 4 8 9 13 11 11 9 8 15 19 20 22 21
22 22 22 23 24 24 23 22 23 23 22 19 15 11 9 19 8 11 10 13 15 17 20 20 17 18 18 21 17 12 13 9 4 10 10 10 13 9 14 11 16 19 20 21 22
23 23 23 23 25 27 25 23 24 24 22 18 10 9 13 20 3 7 10 12 12 16 18 20 20 19 19 18 17 13 10 13 10 9 11 12 14 13 18 14 17 18 18 20 21
24 24 25 25 26 25 25 26 26 22 14 9 7 10 11 9 7 12 13 14 12 13 17 15 19 21 20 18 21 19 17 16 14 14 12 16 18 17 15 17 17 18 17 19 22
23 24 25 26 26 25 24 27 24 13 6 6 9 10 13 5 11 14 16 15 14 13 13 9 13 21 16 18 16 17 17 21 13 16 15 16 12 18 18 18 17 17 18 18 20
22 24 23 25 26 27 28 27 6 6 9 9 9 8 11 14 12 9 9 14 13 14 12 17 13 18 19 19 17 19 21 20 18 17 13 16 8 19 18 17 17 17 17 18 20
22 24 26 26 27 25 18 5 8 9 15 14 6 12 4 7 6 12 11 13 17 16 17 20 18 23 26 25 23 22 20 19 15 24 19 18 16 16 15 14 16 19 18 19 20
23 24 27 28 30 28 12 9 8 9 15 19 26 27 23 15 13 19 15 15 18 19 20 17 24 24 24 25 24 27 23 18 12 17 21 18 19 18 20 15 15 17 20 20 21
24 23 26 29 32 13 11 11 6 12 11 17 25 23 24 22 24 21 23 22 20 23 23 24 21 25 25 25 26 25 24 19 17 26 22 15 17 17 15 20 16 17 18 22 22
24 23 23 30 13 14 6 4 8 10 9 14 11 10 13 12 17 21 20 27 23 24 24 25 21 25 28 28 26 24 24 25 20 12 12 19 16 21 19 21 20 19 19 21 23
23 25 21 13 14 9 8 8 10 8 10 11 13 16 19 17 12 17 19 26 26 22 19 23 26 25 30 30 29 24 23 24 23 17 22 24 18 10 21 21 23 21 21 22 23
23 24 20 15 11 14 13 12 9 10 15 10 12 15 19 20 14 9 15 23 20 22 23 24 21 27 23 27 22 24 23 23 23 19 19 21 17 19 18 18 16 22 23 22 22
23 23 21 13 10 6 6 8 10 14 4 12 16 20 21 19 19 14 18 25 23 23 22 22 28 23 24 24 25 28 24 16 20 19 19 21 18 19 18 15 19 18 20 24 23
24 30 14 11 10 12 9 10 18 12 28 3 17 21 24 19 19 20 17 21 27 23 16 21 22 29 22 28 27 30 27 19 24 18 17 23 23 20 20 14 9 14 15 20 23
30 11 11 10 9 9 11 19 14 21 17 19 12 20 23 22 20 20 22 22 24 25 24 19 25 19 29 26 27 28 30 26 27 23 21 20 26 24 11 14 18 17 20 13 21
13 15 15 13 8 10 13 27 22 32 16 14 24 19 21 23 21 21 20 20 23 26 26 20 17 23 25 24 27 35 22 28 22 27 25 22 22 16 19 20 19 16 16 13 17
11 7 8 6 8 11 18 23 28 34 30 26 23 24 25 23 25 25 23 23 20 24 25 24 19 15 24 32 30 20 28 23 25 23 21 20 17 19 12 13 20 21 23 16 15
9 9 9 5 12 11 19 27 25 29 23 28 23 26 24 23 20 21 18 23 17 19 26 24 17 16 21 24 27 29 28 32 19 27 19 22 17 14 15 17 15 14 12 11 19
9 13 13 12 15 15 21 28 28 29 27 27 25 29 25 26 23 21 19 20 8 15 19 20 19 17 21 20 25 31 29 31 32 22 24 23 19 20 5 9 14 15 17 19 7
8 8 8 11 13 21 22 23 23 20 21 21 23 26 26 30 25 22 25 23 15 14 5 9 20 24 17 21 18 26 31 31 29 24 21 25 25 22 21 14 12 13 12 12 6
6 10 9 12 10 14 15 22 16 20 20 23 22 28 27 25 27 26 26 20 25 17 13 15 20 23 25 24 19 22 29 29 33 29 29 23 29 25 25 21 19 18 16 18 15
6 6 8 13 20 19 14 19 18 17 16 24 23 23 24 24 22 23 26 23 20 20 20 20 18 18 20 22 24 24 21 30 29 32 32 32 31 25 26 23 18 19 17 17 18
6 10 7 8 16 16 13 17 24 18 13 14 22 17 23 9 16 18 20 16 22 17 22 20 15 17 20 21 18 23 27 25 23 27 27 29 28 27 28 26 23 24 21 21 21
Wind_Direction
353 350 347 345 344 342 340 338 336 335 333 330 331 327 321 316 297 208 248 263 192 166 208 201 219 227 234 249 252 277 293 233 262 47 120 142 124 136 97 134 157 103 132 141 147
350 347 344 342 340 338 336 335 333 332 331 328 327 325 319 320 283 268 280 145 150 167 207 205 207 212 231 239 244 244 334 304 25 163 121 155 139 135 154 147 145 136 115 139 159
348 345 342 339 337 335 333 331 330 329 328 325 323 322 317 312 277 248 74 158 160 181 224 208 225 216 235 246 229 240 170 291 123 10 126 149 148 145 148 167 157 151 142 154 164
349 345 342 338 334 332 331 328 326 325 323 321 319 318 316 272 286 113 125 151 167 201 238 210 227 222 235 236 236 247 173 237 72 121 192 156 145 159 168 156 149 155 155 163 170
347 343 340 338 334 330 328 327 322 318 316 315 312 314 293 242 254 130 140 157 178 204 218 220 221 224 233 241 234 227 278 195 207 155 238 149 150 151 166 134 145 143 159 172 177
344 341 338 335 332 328 324 322 319 313 310 305 299 297 250 261 256 145 193 164 203 204 214 227 224 226 245 246 246 222 223 263 222 178 196 196 147 169 151 156 147 152 169 177 183
341 339 337 333 329 325 321 317 314 310 303 295 269 239 262 251 251 177 197 218 208 204 220 216 232 230 234 258 249 262 248 219 221 176 168 214 160 203 155 163 158 166 175 180 187
337 335 334 330 325 321 317 314 311 306 293 268 224 225 260 265 248 211 219 231 231 227 230 222 221 243 246 230 251 226 240 242 180 178 154 221 180 183 159 166 171 174 178 183 190
333 333 332 326 323 320 317 308 304 288 263 196 204 233 259 129 213 220 210 223 203 211 214 234 240 226 237 244 243 226 228 229 146 171 155 217 227 169 162 181 184 179 181 188 191
334 330 330 323 321 320 318 297 287 227 212 217 267 244 243 223 184 166 191 220 186 181 192 207 210 211 222 218 225 220 221 222 177 171 188 208 251 145 165 192 192 185 187 190 193
335 331 329 325 320 318 321 227 215 188 222 247 243 234 112 179 133 211 175 201 200 190 205 196 207 209 209 224 228 236 221 235 215 160 197 191 229 155 170 199 202 186 198 191 200
334 333 328 325 318 316 288 290 11 335 290 259 252 254 257 265 238 218 176 204 206 210 211 186 216 215 219 218 228 242 247 234 226 150 194 201 210 194 173 203 206 204 196 203 199
328 332 328 324 316 287 311 280 350 337 264 271 237 236 238 220 232 229 221 213 212 214 212 221 208 216 216 223 224 233 245 243 231 154 220 228 227 200 184 184 212 212 208 202 206
322 326 328 329 288 338 283 29 284 321 274 255 189 219 203 204 222 226 216 210 226 221 224 225 223 202 220 221 225 227 232 254 239 174 249 207 248 193 205 197 190 213 209 208 204
320 318 325 315 303 286 11 310 318 262 276 107 140 135 170 195 119 187 209 197 216 212 217 223 223 217 212 220 220 232 231 235 250 215 193 217 225 205 217 196 192 202 211 211 205
316 312 323 299 225 257 291 292 260 230 237 186 157 187 183 209 236 133 201 204 218 225 225 238 211 226 222 223 220 232 241 241 236 249 248 239 218 252 168 229 195 192 202 209 210
311 304 298 283 258 43 299 246 227 236 147 200 191 190 203 191 208 182 198 196 205 212 218 223 231 219 232 216 219 224 227 231 232 227 236 239 218 204 239 211 204 225 204 196 202
309 304 267 234 240 251 265 226 235 240 228 67 199 198 206 214 201 189 197 208 211 214 219 214 214 227 207 221 221 215 220 225 226 232 231 230 241 231 229 234 239 212 228 187 191
308 295 282 245 212 234 224 221 227 238 271 234 214 242 207 228 231 209 211 210 210 220 224 217 222 211 220 217 224 218 220 230 239 229 238 225 218 242 257 239 225 242 234 219 179
311 292 263 243 166 213 231 237 237 253 281 267 240 230 233 209 213 235 217 220 223 213 229 233 249 208 208 216 220 238 217 220 230 240 243 232 238 218 203 223 242 221 236 208 200
278 284 106 151 188 227 235 238 237 259 271 250 259 245 242 240 233 217 227 237 227 223 212 228 240 230 204 203 217 217 233 225 229 234 245 245 240 220 200 205 218 223 230 200 199
296 266 114 216 226 234 241 249 262 268 253 247 260 267 261 257 245 258 232 240 198 224 212 214 225 224 234 221 211 228 227 232 232 222 240 258 247 192 210 194 235 265 265 229 181
284 284 278 240 250 248 257 261 251 256 257 259 251 242 254 261 255 244 236 247 192 237 229 198 227 221 220 239 213 215 229 231 230 236 228 236 236 254 237 215 206 213 239 250 146
283 283 261 209 247 264 273 275 275 261 264 279 265 266 237 249 245 244 243 247 224 226 29 271 222 227 222 223 225 214 220 237 233 233 229 239 247 234 229 183 222 214 259 250 219
259 273 337 294 257 357 314 322 284 294 279 257 254 254 257 240 239 240 242 230 232 216 240 235 232 232 227 260 234 230 218 225 236 240 238 237 234 235 232 223 215 221 245 262 234
276 295 316 290 295 293 271 273 276 261 278 284 288 252 249 257 251 234 233 235 225 201 218 215 233 243 239 232 238 258 236 220 226 242 243 245 251 246 245 251 226 210 228 254 268
256 284 268 281 278 268 269 252 291 264 265 254 277 339 295 315 332 317 319 270 234 229 203 219 216 224 230 233 243 231 238 248 244 231 233 244 250 251 258 255 241 236 237 248 258